Hilton Head Island, SC

3:25 AM EDT on October 01, 2016 (GMT -0400)
Hilton Head

Weather History for KHXD - November, 2013

Change the Weather History Date:

Tuesday, November 5, 2013

  Actual Average Record
Temperature  
Mean Temperature 58 °F -  
Max Temperature 66 °F 70 °F 82 °F (1973)
Min Temperature 50 °F 50 °F 31 °F (1966)
Degree Days  
Heating Degree Days 7    
Growing Degree Days 8 (Base 50)    
Moisture  
Dew Point 51 °F    
Average Humidity 80    
Maximum Humidity 94    
Minimum Humidity 63    
Precipitation  
Precipitation 0.00 in - - ()
Sea Level Pressure  
Sea Level Pressure 30.35 in    
Wind  
Wind Speed 13 mph (North)    
Max Wind Speed 20 mph    
Max Gust Speed 29 mph    
Visibility 10 miles    
Events      
Averages and records for this station are not official NWS values.
T = Trace of Precipitation, MM = Missing Value Source: NWS Daily Summary

Daily Weather History Graph

Daily Weather History Graph

Search for Another Location

Airport or City:

Trip Planner

Search our weather history database for the weather conditions in past years. The results will help you decide how hot, cold, wet, or windy it might be!

Date:

Astronomy

Nov. 05, 2013 Rise Set
Actual Time 6:43 AM EST 5:29 PM EST
Civil Twilight 6:17 AM EST 5:54 PM EST
Nautical Twilight 5:48 AM EST 6:23 PM EST
Astronomical Twilight 5:19 AM EST 6:52 PM EST
Moon 8:52 AM EST (11/5) 7:33 PM EST (11/5)
Length of Visible Light 11h 36m
Length of Day
10h 45m
Waxing Crescent, 6% of the Moon is Illuminated
Nov 5
Waxing Crescent
Nov 10
First Quarter
Nov 17
Full
Nov 25
Last Quarter
Dec 2
New

Hourly Weather History & Observations

Time (EST) Temp. Dew Point Humidity Pressure Visibility Wind Dir Wind Speed Gust Speed Precip Events Conditions
12:15 AM 55.4 °F 46.4 °F 72% 30.39 in 10.0 mi North 11.5 mph 18.4 mph 0.00 in   Clear
12:35 AM 55.4 °F 46.4 °F 72% 30.39 in 10.0 mi North 10.4 mph - 0.00 in   Clear
12:55 AM 53.6 °F 44.6 °F 72% 30.39 in 10.0 mi North 8.1 mph - 0.00 in   Clear
1:15 AM 53.6 °F 44.6 °F 72% 30.38 in 10.0 mi North 13.8 mph 20.7 mph 0.00 in   Scattered Clouds
1:35 AM 53.6 °F 44.6 °F 72% 30.39 in 10.0 mi North 12.7 mph 19.6 mph 0.00 in   Scattered Clouds
1:55 AM 53.6 °F 44.6 °F 72% 30.38 in 10.0 mi North 12.7 mph 19.6 mph 0.00 in   Partly Cloudy
2:15 AM 53.6 °F 44.6 °F 72% 30.37 in 10.0 mi North 13.8 mph 18.4 mph 0.00 in   Clear
2:35 AM 53.6 °F 44.6 °F 72% 30.38 in 10.0 mi North 18.4 mph 23.0 mph 0.00 in   Clear
2:55 AM 51.8 °F 44.6 °F 76% 30.37 in 10.0 mi North 16.1 mph 21.9 mph 0.00 in   Clear
3:15 AM 51.8 °F 44.6 °F 76% 30.37 in 10.0 mi North 16.1 mph 26.5 mph 0.00 in   Clear
3:35 AM 51.8 °F 44.6 °F 76% 30.37 in 10.0 mi North 16.1 mph 19.6 mph 0.00 in   Clear
3:55 AM 51.8 °F 44.6 °F 76% 30.37 in 10.0 mi North 17.3 mph 25.3 mph 0.00 in   Clear
4:15 AM 51.8 °F 44.6 °F 76% 30.37 in 10.0 mi North 15.0 mph - 0.00 in   Clear
4:35 AM 51.8 °F 44.6 °F 76% 30.38 in 10.0 mi North 13.8 mph 20.7 mph 0.00 in   Clear
4:55 AM 50.0 °F 44.6 °F 82% 30.37 in 10.0 mi North 16.1 mph 21.9 mph 0.00 in   Clear
5:15 AM 50.0 °F 44.6 °F 82% 30.38 in 10.0 mi North 16.1 mph 21.9 mph 0.00 in   Clear
5:35 AM 50.0 °F 44.6 °F 82% 30.37 in 10.0 mi North 17.3 mph 23.0 mph 0.00 in   Clear
6:45 AM 51.8 °F 48.2 °F 88% 30.38 in 10.0 mi North 13.8 mph 23.0 mph N/A   Clear
7:50 AM 50.0 °F 46.4 °F 87% 30.39 in 10.0 mi North 18.4 mph - N/A   Partly Cloudy
8:50 AM 51.8 °F 44.6 °F 76% 30.38 in 10.0 mi North 19.6 mph 28.8 mph N/A   Clear
9:50 AM 53.6 °F 46.4 °F 77% 30.40 in 10.0 mi North 19.6 mph 23.0 mph N/A   Clear
10:50 AM 57.2 °F 50.0 °F 77% 30.39 in 10.0 mi North 12.7 mph 20.7 mph N/A   Clear
11:50 AM 60.8 °F 50.0 °F 68% 30.37 in - North 11.5 mph 18.4 mph N/A   Clear
11:55 AM 62.6 °F 55.4 °F 77% 30.39 in - North 13.8 mph - N/A   Clear
12:50 PM 62.6 °F 50.0 °F 63% 30.34 in - North 11.5 mph 18.4 mph N/A   Clear
1:50 PM 64.4 °F 51.8 °F 64% 30.33 in - North 11.5 mph 18.4 mph N/A   Scattered Clouds
2:50 PM 66.2 °F 55.4 °F 68% 30.31 in - North 11.5 mph 18.4 mph N/A   Overcast
3:50 PM 66.2 °F 57.2 °F 73% 30.31 in - North 11.5 mph - N/A   Overcast
4:15 PM 62.6 °F 59.0 °F 88% 30.32 in 3.0 mi North 12.7 mph 19.6 mph N/A   Drizzle
4:50 PM 60.8 °F 59.0 °F 94% 30.32 in 5.0 mi North 11.5 mph - N/A   Overcast
5:50 PM 60.8 °F 59.0 °F 94% 30.33 in 10.0 mi North 11.5 mph 18.4 mph N/A   Overcast
6:50 PM 60.8 °F 57.2 °F 88% 30.33 in 10.0 mi North 11.5 mph 19.6 mph N/A   Overcast
7:50 PM 60.8 °F 57.2 °F 88% 30.33 in 10.0 mi North 13.8 mph 20.7 mph N/A   Scattered Clouds
8:15 PM 60.8 °F 57.2 °F 88% 30.34 in 10.0 mi North 10.4 mph - 0.00 in   Scattered Clouds
8:35 PM 60.8 °F 57.2 °F 88% 30.33 in 10.0 mi North 12.7 mph 17.3 mph 0.00 in   Mostly Cloudy
8:55 PM 60.8 °F 57.2 °F 88% 30.33 in 10.0 mi North 12.7 mph 18.4 mph 0.00 in   Mostly Cloudy
9:15 PM 60.8 °F 57.2 °F 88% 30.33 in 10.0 mi North 12.7 mph 17.3 mph 0.00 in   Mostly Cloudy
9:35 PM 60.8 °F 57.2 °F 88% 30.33 in 10.0 mi North 10.4 mph - 0.00 in   Partly Cloudy
9:55 PM 60.8 °F 57.2 °F 88% 30.33 in 10.0 mi North 10.4 mph 16.1 mph 0.00 in   Partly Cloudy
10:15 PM 60.8 °F 57.2 °F 88% 30.33 in 10.0 mi North 9.2 mph - 0.00 in   Clear
10:35 PM 60.8 °F 57.2 °F 88% 30.33 in 10.0 mi North 9.2 mph 16.1 mph 0.00 in   Clear
10:55 PM 59.0 °F 57.2 °F 94% 30.32 in 10.0 mi North 12.7 mph 16.1 mph 0.00 in   Partly Cloudy
11:15 PM 59.0 °F 57.2 °F 94% 30.32 in 10.0 mi North 11.5 mph - 0.00 in   Partly Cloudy
11:35 PM 59.0 °F 55.4 °F 88% 30.32 in 10.0 mi North 9.2 mph - 0.00 in   Clear
11:55 PM 59.0 °F 57.2 °F 94% 30.31 in 10.0 mi North 10.4 mph - 0.00 in   Clear